EW1979 Weather Reports


time (UTC)temp
C
wind
direction
speed
KPH
gust
KPH
rain 1hr
cm
rain 24hr
cm
rain mn
cm
humidity
%
barometer
mb
20260507140002 12 5 0.0 0.0 0.00 0.00 0.00 31 1015.2
20260507134502 12 5 0.0 0.0 0.00 0.00 0.00 36 1015.5
20260507133103 13 341 0.0 0.0 0.00 0.00 0.00 40 1015.1
20260507131503 13 360 0.0 0.0 0.00 0.00 0.00 45 1015.2
20260507130008 13 5 0.0 0.0 0.00 0.00 0.00 50 1015.3
20260507124621 13 11 0.0 0.0 0.00 0.00 0.00 55 1014.2
20260507123110 13 5 0.0 0.0 0.00 0.00 0.00 60 1014.2
20260507121506 13 11 0.0 0.0 0.00 0.00 0.00 62 1014.2
20260507111507 13 5 0.0 0.0 0.00 0.00 0.00 68 1013.3
20260507110003 13 16 0.0 0.0 0.00 0.00 0.00 68 1013.0
20260507104605 14 5 0.0 0.0 0.00 0.00 0.00 68 1012.5
20260507103115 14 15 0.0 0.0 0.00 0.00 0.00 67 1012.6
20260507101503 14 11 0.0 0.0 0.00 0.00 0.00 68 1012.6
20260507093003 15 9 0.0 0.0 0.00 0.00 0.00 65 1012.1
20260507091509 15 5 0.0 0.0 0.00 0.00 0.00 65 1012.1
20260507084603 15 9 0.0 0.0 0.00 0.00 0.00 63 1011.3
20260507081504 15 11 0.0 0.0 0.00 0.00 0.00 60 1011.6
20260507080007 15 11 0.0 0.0 0.00 0.00 0.00 59 1011.9
20260507074507 15 11 0.0 0.0 0.00 0.00 0.00 59 1011.7
20260507071516 15 5 0.0 0.0 0.00 0.00 0.00 61 1011.4
20260507070008 15 5 0.0 0.0 0.00 0.00 0.00 62 1011.5
20260507061603 15 5 0.0 0.0 0.00 0.00 0.00 66 1011.2
20260507054503 15 5 0.0 0.0 0.00 0.00 0.00 67 1010.9
20260507053003 15 5 0.0 0.0 0.00 0.00 0.00 65 1011.0
20260507051508 15 5 0.0 0.0 0.00 0.00 0.00 64 1010.7
20260507044604 15 5 0.0 0.0 0.00 0.00 0.00 63 1011.5
20260507043003 15 16 0.0 0.0 0.00 0.00 0.00 63 1011.5
20260507041602 15 5 0.0 0.0 0.00 0.00 0.00 62 1011.5
20260507034502 15 15 0.0 0.0 0.00 0.00 0.00 59 1011.0
20260507033003 15 5 0.0 0.0 0.00 0.00 0.00 60 1010.9
20260507031503 15 5 0.0 0.0 0.00 0.00 0.00 62 1010.7
20260507030006 15 360 0.0 0.0 0.00 0.00 0.00 63 1010.6
20260507024632 15 360 0.0 0.0 0.00 0.00 0.00 64 1010.7
20260507023004 15 355 0.0 0.0 0.00 0.00 0.00 65 1010.5
20260507021603 15 5 0.0 0.0 0.00 0.00 0.00 65 1010.4
20260507020004 15 360 0.0 0.0 0.00 0.00 0.00 65 1010.2
20260507014508 15 5 0.0 0.0 0.00 0.00 0.00 66 1009.8
20260507013103 15 9 0.0 0.0 0.00 0.00 0.00 67 1009.7
20260507011604 15 360 0.0 0.0 0.00 0.00 0.00 68 1009.3
20260507004508 16 5 0.0 0.0 0.00 0.00 0.00 72 1009.0
20260507003002 16 9 0.0 0.0 0.00 0.00 0.00 75 1008.8
20260507001603 16 12 0.0 0.0 0.00 0.00 0.00 76 1008.8
20260506234614 17 9 0.0 0.0 0.00 0.00 0.00 80 1008.4
20260506233105 17 347 0.0 0.0 0.00 0.00 0.00 80 1008.0
20260506231517 18 5 0.0 0.0 0.00 0.00 0.00 80 1007.6
20260506230103 18 355 0.0 0.0 0.00 0.00 0.00 80 1007.6
20260506224602 20 340 0.0 0.0 0.00 0.00 0.00 78 1007.2
20260506221507 20 355 0.0 0.0 0.00 0.00 0.00 78 1007.1
20260506220007 20 355 0.0 0.0 0.00 0.00 0.00 77 1007.1
20260506214507 22 9 0.0 0.0 0.00 0.00 0.00 73 1006.5
20260506210008 26 9 0.0 0.0 0.00 0.00 0.00 72 1006.0
20260506204503 25 17 0.0 0.0 0.00 0.00 0.00 74 1006.2
20260506203002 25 15 0.0 0.0 0.00 0.00 0.00 75 1006.4
20260506200104 25 34 0.0 0.0 0.00 0.00 0.00 76 1006.5
20260506194503 25 36 0.0 0.0 0.00 0.00 0.00 76 1006.6
20260506193002 25 47 0.0 0.0 0.00 0.00 0.00 74 1006.7
20260506191508 26 47 0.0 0.0 0.00 0.00 0.00 73 1006.7
20260506184609 24 45 0.0 0.0 0.00 0.00 0.00 74 1006.8
20260506183106 23 44 0.0 0.0 0.00 0.00 0.00 74 1007.2
20260506181509 23 44 0.0 0.0 0.00 0.00 0.00 74 1007.4
20260506174603 24 42 0.0 0.0 0.00 0.00 0.00 69 1007.3
20260506173110 22 36 0.0 0.0 0.00 0.00 0.00 45 1007.9
20260506164603 21 12 0.0 0.0 0.00 0.00 0.00 68 1007.7
20260506161604 22 177 0.0 0.0 0.00 0.00 0.00 31 1007.6
20260506160117 22 177 0.0 0.0 0.00 0.00 0.00 100 1007.8
20260506153104 22 161 0.0 0.0 0.00 0.00 0.00 100 1007.5
20260506151506 22 160 0.0 0.0 0.00 0.00 0.00 100 1007.5
20260506150103 22 159 0.0 0.0 0.00 0.00 0.00 100 1007.3
20260506144609 22 157 0.0 0.0 0.00 0.00 0.00 100 1007.2
20260506141507 21 157 0.0 0.0 0.00 0.00 0.00 100 1007.3